Weather Roundup
Issued by NWS

Home | Current Version | Previous Version | Graphics & Text | Print | Product List | Glossary Off
Versions: 1 2 3 4 5 6 7 8 9 10 11 12 13 14 15 16 17 18 19 20 21 22 23 24 25 26 27 28 29 30 31 32 33 34 35 36 37 38 39 40 41 42 43 44 45 46 47 48 49 50

000
NZUS93 KARX 211810
HRRWXR

CURRENT HOURLY OBSERVATIONS ACROSS
MUCH OF THE UPPER MISSISSIPPI VALLEY
NATIONAL WEATHER SERVICE LA CROSSE WI
100 PM CDT SUN SEP 21 2014


...SOUTHEAST MINNESOTA...


CITY           SKY/WX    TMP DP  RH WIND       PRES   REMARKS
ROCHESTER      PTSUNNY   60  48  64 N13       30.13R
ROCHESTER/MAYO MOCLDY    59  44  57 NW20G31   30.11S
WINONA         PTSUNNY   63  46  55 N12G21    30.08R
AUSTIN         PTSUNNY   61  48  63 NW14G21   30.13R
ALBERT LEA     CLOUDY    61  48  63 N10G17    30.14S
DODGE CENTER   PTSUNNY   59  48  67 N14G23    30.13R
PRESTON        CLOUDY    58  52  80 N14       30.11R
OWATONNA       MOSUNNY   61  46  59 N13       30.14S
FARIBAULT      MOSUNNY   66  45  45 N14G20    30.15S
$$

...ELSEWHERE IN MINNESOTA...


CITY           SKY/WX    TMP DP  RH WIND       PRES   REMARKS
MINNEAPOLIS    PTSUNNY   63  47  55 N15G22    30.14S
INTNL FALLS    SUNNY     59  43  55 NW7       30.16S
DULUTH         SUNNY     60  38  43 N14       30.11R
RED WING       MOSUNNY   63  46  55 NW9G21    30.10S
REDWOOD FALLS  CLOUDY    61  50  67 N9G21     30.21R
MANKATO        MOSUNNY   63  45  51 N15G21    30.16S
WORTHINGTON    MOSUNNY   63  46  55 N17       30.23R
FAIRMONT       CLOUDY    64  45  48 N14G20    30.18S
$$

...SOUTHWEST WISCONSIN...


CITY           SKY/WX    TMP DP  RH WIND       PRES   REMARKS
LA CROSSE      MOSUNNY   67  46  47 NW16G23   30.05R
PRAIRIE DU CHI PTSUNNY   63  49  61 NW12G20   30.05R
BOSCOBEL       CLOUDY    63  50  62 NW14G23   30.04R
LONE ROCK      CLOUDY    65  53  65 N14       30.02R
PLATTEVILLE    CLOUDY    59  53  79 NW9       30.04R
FORT MC COY    PTSUNNY   61  44  53 NW17G25   30.05R
CAMP DOUGLAS   PTSUNNY   61  48  63 NW17G24   30.03R
VIROQUA        FAIR      62  49  62 NW20G25   30.05R
WIS DELLS      PTSUNNY   61  45  56 N14G22    30.00R
$$

...ELSEWHERE IN WISCONSIN...


CITY           SKY/WX    TMP DP  RH WIND       PRES   REMARKS
MILWAUKEE      PTSUNNY   62  51  67 N13G21    29.92R
MADISON        PTSUNNY   58  53  84 NW12G25   29.98R
GREEN BAY      CLOUDY    57  47  69 NW15      29.96R
EAU CLAIRE     PTSUNNY   62  45  53 N13G22    30.07R
BLACK RVR FLS  FAIR      64  43  46 NW12G20   30.04S
MEDFORD        PTSUNNY   55  44  64 N16       30.04R
WAUSAU         CLOUDY    54  41  61 N14G22    30.01R
WIS RAPIDS     PTSUNNY   59  43  55 NW17G24   30.03R
MARSHFIELD     PTSUNNY   59  44  57 N23G29    30.03R
RICE LAKE      MOSUNNY   60  45  57 N14       30.10S
$$

...NORTHEAST IOWA...


CITY           SKY/WX    TMP DP  RH WIND       PRES   REMARKS
WATERLOO       CLOUDY    59  49  69 NW17      30.11R
DUBUQUE        CLOUDY    58  51  78 N13       30.05R
DECORAH        PTSUNNY   63  50  63 N9G21     30.07S
MASON CITY     CLOUDY    60  50  69 NW14G23   30.16R
CHARLES CITY   CLOUDY    61  48  63 NW17      30.13R
OELWEIN        CLOUDY    61  50  67 N16G23    30.10S
$$

...ELSEWHERE IN IOWA...


CITY           SKY/WX    TMP DP  RH WIND       PRES   REMARKS
DES MOINES     MOSUNNY   70  48  45 N14G22    30.14S
IOWA CITY        N/A     61  50  67 NW20G28   30.10R
FORT DODGE     PTSUNNY   64  46  52 N7G22     30.18S
MARSHALLTOWN   PTSUNNY   64  49  57 N16       30.13R
CEDAR RAPIDS   CLOUDY    59  51  75 NW15      30.09R
$$

...NORTHERN ILLINOIS...


CITY           SKY/WX    TMP DP  RH WIND       PRES   REMARKS
CHICAGO-OHARE  CLOUDY    64  51  62 NW20      29.93R
DUPAGE         PTSUNNY   63  51  65 NW17      29.95R
CHICAGO-MIDWAY PTSUNNY   66  52  60 NW17G25   29.93R
MOLINE         CLOUDY    63  49  60 NW14G25   30.05R
ROCKFORD       PTSUNNY   64  50  60 NW16G24   29.99R
STERLING       CLOUDY    64  52  63 N15G23    30.01R
PEORIA         MOSUNNY   68  49  50 NW12G23   30.01R
$$

NOTE: "FAIR" INDICATES FEW OR NO CLOUDS BELOW 12,000 FEET WITH NO
SIGNIFICANT WEATHER AND/OR OBSTRUCTIONS TO VISIBILITY. WIND
SPEEDS ARE IN MILES-PER-HOUR.



USA.gov is the U.S. government's official web portal to all federal, state and local government web resources and services.